Location: Henham
(51.9333°N, 0.2500°E)
Time: 19:19:09
(UTC+00:00)

Okean 3 Rocket - Pass Details

Date: 23 October 2019
Orbit: 615 x 645 km, 82.5° (Epoch: 10 November)

Event Time Altitude Azimuth Distance (km) Brightness Sun altitude
Rises 17:55:37 0° 356° (N) 2,965 7.1 -10.9°
Reaches altitude 10° 17:58:09 10° 8° (N) 2,047 6.1 -11.3°
Maximum altitude 18:02:06 28° 68° (ENE) 1,196 4.5 -11.9°
Enters shadow 18:05:52 11° 127° (SE) 1,981 5.7 -12.5°
